Location: Nitra
(0.0000°N, 18.0833°E)
Time: 19:56:28
(UTC+02:00)

RS-44 - Pass Details

Date: 12 June 2023
Orbit: 1175 x 1510 km, 82.5° (Epoch: 26 September)

Event Time Altitude Azimuth Distance (km) Brightness Sun altitude
Rises 19:17:33 0° 341° (NNW) 4,145 ? -6.9°
Reaches altitude 10° 19:20:27 10° 334° (NNW) 3,148 ? -7.6°
Maximum altitude 19:27:09 40° 267° (W) 1,666 ? -9.1°
Drops below altitude 10° 19:33:46 10° 199° (SSW) 3,094 ? -10.6°
Sets 19:36:37 0° 192° (SSW) 4,067 ? -11.3°
